Regional Weather Roundup
Issued by NWS Green Bay, WI

Home | Current Version | Previous Version | Graphics & Text | Print | Product List | Glossary Off
Versions: 1 2 3 4 5 6 7 8 9 10 11 12 13 14 15 16 17 18 19 20 21 22 23 24 25 26 27 28 29 30 31 32 33 34 35 36 37 38 39 40 41 42 43 44 45 46 47 48 49 50

000
ASUS43 KGRB 232100
RWRGRB

NORTH-CENTRAL AND NORTHEAST WISCONSIN REGIONAL WEATHER ROUNDUP
NATIONAL WEATHER SERVICE GREEN BAY WI
300 PM CST TUE JAN 23 2018

WIZ005-009-010>012-018-019-232200-
NORTH CENTRAL WISCONSIN

CITY           SKY/WX    TMP DP  RH WIND       PRES   REMARKS
IRONWOOD       FLURRIES  20  16  84 N7        30.02R
MANITOWISH WTR NOT AVBL
ARBOR VITAE    NOT AVBL
EAGLE RIVER    FLURRIES  19  16  90 N9        29.93R WCI   8
LAND O LAKES   NOT AVBL
RHINELANDER    CLOUDY    21  15  78 N7G17     29.95R
PHILLIPS       CLOUDY    19  17  90 N8        29.98R WCI   9
ANTIGO         NOT AVBL
TOMAHAWK       NOT AVBL
MERRILL        CLOUDY    24  17  74 N12       29.96R
$$

WIZ013-073-232200-
NORTHEAST WISCONSIN

CITY           SKY/WX    TMP DP  RH WIND       PRES   REMARKS
IRON MOUNTAIN  CLOUDY    22  16  78 NW14G24   29.91R WCI   9
MARINETTE      CLOUDY    27  20  75 N9G18     29.93R
$$

WIZ017-030-035>037-045-232200-
CENTRAL WISCONSIN

CITY           SKY/WX    TMP DP  RH WIND       PRES   REMARKS
MEDFORD        NOT AVBL
WAUSAU         FAIR      25  17  72 N10G20    29.94R
MOSINEE        PTSUNNY   25  19  80 NW9G16    29.96R
MARSHFIELD     CLOUDY    23  17  78 NW16      29.96R WCI  10
WISC RAPIDS    CLOUDY    24  16  71 NW13      29.99R
STEVENS POINT  NOT AVBL
WAUPACA        NOT AVBL
SHAWANO        CLOUDY    31  21  67 N9        29.93R
CLINTONVILLE   NOT AVBL
WAUTOMA        CLOUDY    27  20  75 NW12      29.98R
$$

WIZ038-039-048-051-232200-
FOX VALLEY

CITY           SKY/WX    TMP DP  RH WIND       PRES   REMARKS
NWS GREEN BAY  CLOUDY    28  21  75 NW13      29.94R
APPLETON       NOT AVBL
OSHKOSH        CLOUDY    28  20  71 NW12      29.94R
FOND DU LAC    CLOUDY    29  20  69 NW13      29.94R
$$

WIZ022-050-052-232200-
EAST CENTRAL WISCONSIN

CITY           SKY/WX    TMP DP  RH WIND       PRES   REMARKS
EPHRAIM        NOT AVBL
WASHINGTON ISL NOT AVBL
STURGEON BAY   CLOUDY    26  20  77 N20       29.91R
MANITOWOC      CLOUDY    29  22  75 NW17      29.92R
SHEBOYGAN      CLOUDY    29  22  75 N14G21    29.91R
$$

LMZ563-521-522-541>543-232200-
LAKESHORE

STATION/POSITION TIME  TEMP    WIND        PRES    VSBY  WAVE
                       AIR SEA DIR/SP/G                  HT/PER
                 (UTC) (F)     (DEG/KT/KT) (MB)    (MI)  (FT/S)
SHEBOYGAN LKSHOR 2000   29     320/ 16/ 22 1012.0R
KEWAUNEE LKSHORE 2030   28     340/ 12/ 17 1011.1R
NORTHPORT PIER   2040   25     330/  9/ 13 1012.2R
SISTER BAY LKSHO 2005   26     330/ 23/ 28   N/A
MENOMINEE LKSHOR 2030   26     330/ 19/ 21 1012.2R
$$



USA.gov is the U.S. government's official web portal to all federal, state and local government web resources and services.